Details for Wideroe at ENBR




Go Back


Latest METAR
Local Time

ENBR 240750Z 24007KT 210V300 9999 FEW012 10/09 Q1030 NOSIG RMK WIND 1200FT 16004KT

24/05/2018, 10:01:38

Description
Results
Wideroe Logo
Number of Pilots based at ENBR
0 Pilots Based here
Number of Wideroe Flights Departed from ENBR
3 Flights Departed
Number of Wideroe Flights Arrived at ENBR
1 Flights Arrived
Number of Wideroe Schedules Departing from ENBR
42 Schedules
Number of Wideroe Schedules Arriving at ENBR
45 Schedules
Number of Wideroe Schedules Departing from ENBR availible today
37 Schedules Today
Number of Wideroe Schedules Arriving at ENBR availible today
38 Schedules Today
Average Landing Rate at ENBR
-244 fpm
Wideroe Average Landing Rate at ENBR
-26 fpm
Total Fuel Purchased at ENBR by Wideroe
4,280.10 kgs / 9,435.91 lbs

Pilots Based at ENBR


Pilot ID
Pilot Name
Pilot Rank
No. of Flights
No. of Flying Hours
There are no pilots assigned to this hub!   Will you be the first?
Content